• In Belarus
  • List of Countries
  • For 7 days
  • Water Temperature
  • Satellite Maps
  • Weather Map
  • Weather Widgets
  • user-avatar
    Login

    Hourly Weather Jartypory

    Today, 22 September, Saturday

    Time Temperature Precipitation Wind Pressure Humidity
    00:00 +20°C° 0 mm 6 mps 743 mmHg 60%
    01:00 +20°C° 0 mm 5 mps 743 mmHg 60%
    02:00 +19°C° 0.4 mm 6 mps 744 mmHg 67%
    03:00 +17°C° 0.4 mm 6 mps 744 mmHg 74%
    04:00 +15°C° 0.4 mm 7 mps 745 mmHg 81%
    05:00 +14°C° 0.3 mm 6 mps 746 mmHg 81%
    06:00 +14°C° 0.3 mm 6 mps 747 mmHg 80%
    07:00 +13°C° 0.3 mm 5 mps 748 mmHg 79%
    08:00 +13°C° 0 mm 5 mps 748 mmHg 74%
    09:00 +13°C° 0 mm 5 mps 748 mmHg 69%
    10:00 +14°C° 0 mm 6 mps 749 mmHg 64%
    11:00 +15°C° 0 mm 6 mps 749 mmHg 59%
    12:00 +16°C° 0 mm 6 mps 749 mmHg 54%
    13:00 +16°C° 0 mm 6 mps 749 mmHg 49%
    14:00 +16°C° 0.2 mm 6 mps 748 mmHg 50%
    15:00 +16°C° 0.2 mm 6 mps 748 mmHg 50%
    16:00 +16°C° 0.2 mm 6 mps 748 mmHg 51%
    17:00 +14°C° 0 mm 5 mps 748 mmHg 56%
    18:00 +13°C° 0 mm 4 mps 748 mmHg 60%
    19:00 +11°C° 0 mm 3 mps 749 mmHg 65%
    20:00 +11°C° 0 mm 3 mps 749 mmHg 66%
    21:00 +11°C° 0 mm 3 mps 749 mmHg 68%
    22:00 +10°C° 0 mm 3 mps 749 mmHg 69%
    23:00 +10°C° 0 mm 3 mps 749 mmHg 70%

    Tomorrow, 23 September, Sunday

    Time Temperature Precipitation Wind Pressure Humidity
    00:00 +10°C° 0 mm 3 mps 749 mmHg 70%
    01:00 +10°C° 0 mm 3 mps 749 mmHg 71%
    02:00 +9°C° 0 mm 3 mps 749 mmHg 71%
    03:00 +9°C° 0 mm 3 mps 748 mmHg 72%
    04:00 +9°C° 0 mm 3 mps 748 mmHg 73%
    05:00 +10°C° 0 mm 4 mps 748 mmHg 71%
    06:00 +10°C° 0 mm 4 mps 748 mmHg 69%
    07:00 +11°C° 0 mm 4 mps 748 mmHg 67%
    08:00 +12°C° 0.1 mm 4 mps 748 mmHg 67%
    09:00 +12°C° 0.1 mm 4 mps 748 mmHg 67%
    10:00 +13°C° 0.1 mm 5 mps 748 mmHg 67%
    11:00 +13°C° 0.1 mm 5 mps 748 mmHg 66%
    12:00 +14°C° 0.1 mm 5 mps 747 mmHg 66%
    13:00 +14°C° 0.1 mm 5 mps 747 mmHg 65%
    14:00 +14°C° 0.1 mm 5 mps 747 mmHg 66%
    15:00 +14°C° 0.1 mm 4 mps 746 mmHg 67%
    16:00 +14°C° 0.1 mm 4 mps 746 mmHg 68%
    17:00 +13°C° 0 mm 3 mps 745 mmHg 73%
    18:00 +12°C° 0 mm 3 mps 745 mmHg 78%
    19:00 +12°C° 0 mm 2 mps 745 mmHg 83%
    20:00 +12°C° 0.7 mm 2 mps 744 mmHg 86%
    21:00 +10°C° 0.7 mm 2 mps 743 mmHg 89%
    22:00 +10°C° 0.7 mm 2 mps 742 mmHg 92%
    23:00 +10°C° 2.3 mm 3 mps 741 mmHg 92%

    Day after tomorrow, 24 September, Monday

    Time Temperature Precipitation Wind Pressure Humidity
    00:00 +10°C° 2.3 mm 4 mps 739 mmHg 93%
    01:00 +9°C° 2.3 mm 5 mps 737 mmHg 94%
    02:00 +9°C° 2.8 mm 5 mps 736 mmHg 94%
    03:00 +9°C° 2.8 mm 5 mps 735 mmHg 94%
    04:00 +9°C° 2.8 mm 5 mps 734 mmHg 94%
    05:00 +9°C° 3.2 mm 7 mps 734 mmHg 92%
    06:00 +7°C° 3.2 mm 9 mps 735 mmHg 90%
    07:00 +7°C° 3.2 mm 12 mps 735 mmHg 88%
    08:00 +7°C° 0.9 mm 11 mps 737 mmHg 87%
    09:00 +7°C° 0.9 mm 10 mps 739 mmHg 85%
    10:00 +8°C° 0.9 mm 9 mps 740 mmHg 84%
    11:00 +8°C° 0.3 mm 9 mps 741 mmHg 77%
    12:00 +10°C° 0.3 mm 9 mps 742 mmHg 71%
    13:00 +11°C° 0.3 mm 9 mps 743 mmHg 64%
    14:00 +11°C° 0.1 mm 9 mps 744 mmHg 63%
    15:00 +11°C° 0.1 mm 9 mps 744 mmHg 62%
    16:00 +11°C° 0.1 mm 8 mps 745 mmHg 62%
    17:00 +10°C° 0.2 mm 8 mps 746 mmHg 66%
    18:00 +8°C° 0.2 mm 9 mps 747 mmHg 71%
    19:00 +7°C° 0.2 mm 9 mps 747 mmHg 75%
    20:00 +6°C° 0.1 mm 8 mps 748 mmHg 74%
    21:00 +6°C° 0.1 mm 8 mps 749 mmHg 73%
    22:00 +6°C° 0.1 mm 8 mps 750 mmHg 72%
    23:00 +5°C° 0 mm 7 mps 751 mmHg 72%

    25 September, Tuesday

    Time Temperature Precipitation Wind Pressure Humidity
    00:00 +5°C° 0 mm 7 mps 752 mmHg 72%
    01:00 +4°C° 0 mm 6 mps 752 mmHg 72%
    02:00 +4°C° 0 mm 6 mps 753 mmHg 72%
    03:00 +4°C° 0 mm 6 mps 753 mmHg 73%
    04:00 +4°C° 0 mm 6 mps 754 mmHg 73%
    05:00 +4°C° 0 mm 6 mps 754 mmHg 71%
    06:00 +5°C° 0 mm 7 mps 755 mmHg 69%
    07:00 +5°C° 0 mm 7 mps 755 mmHg 67%
    08:00 +6°C° 0.1 mm 7 mps 756 mmHg 62%
    09:00 +7°C° 0.1 mm 8 mps 756 mmHg 57%
    10:00 +10°C° 0.1 mm 8 mps 757 mmHg 53%
    11:00 +10°C° 0.1 mm 8 mps 757 mmHg 49%
    12:00 +11°C° 0.1 mm 8 mps 757 mmHg 46%
    13:00 +11°C° 0.1 mm 8 mps 757 mmHg 43%
    14:00 +11°C° 0 mm 7 mps 757 mmHg 45%
    15:00 +11°C° 0 mm 6 mps 757 mmHg 46%
    16:00 +12°C° 0 mm 5 mps 757 mmHg 48%
    17:00 +10°C° 0 mm 5 mps 757 mmHg 53%
    18:00 +9°C° 0 mm 5 mps 757 mmHg 57%
    19:00 +8°C° 0 mm 5 mps 757 mmHg 62%
    20:00 +8°C° 0 mm 6 mps 757 mmHg 62%
    21:00 +8°C° 0 mm 6 mps 756 mmHg 62%
    22:00 +8°C° 0 mm 7 mps 756 mmHg 62%
    23:00 +7°C° 0.2 mm 8 mps 755 mmHg 65%

    26 September, Wednesday

    Time Temperature Precipitation Wind Pressure Humidity
    00:00 +7°C° 0.2 mm 8 mps 755 mmHg 69%
    01:00 +7°C° 0.2 mm 9 mps 754 mmHg 72%
    02:00 +7°C° 0.7 mm 9 mps 754 mmHg 76%
    03:00 +7°C° 0.7 mm 9 mps 754 mmHg 79%
    04:00 +7°C° 0.7 mm 9 mps 753 mmHg 83%
    05:00 +7°C° 0.6 mm 8 mps 754 mmHg 81%
    06:00 +8°C° 0.6 mm 7 mps 754 mmHg 80%
    07:00 +8°C° 0.6 mm 6 mps 754 mmHg 78%
    08:00 +10°C° 0 mm 6 mps 755 mmHg 70%
    09:00 +11°C° 0 mm 7 mps 755 mmHg 61%
    10:00 +12°C° 0 mm 7 mps 756 mmHg 53%
    11:00 +12°C° 0 mm 7 mps 756 mmHg 50%
    12:00 +14°C° 0 mm 6 mps 756 mmHg 47%
    13:00 +14°C° 0 mm 6 mps 756 mmHg 44%
    14:00 +14°C° 0 mm 5 mps 756 mmHg 47%
    15:00 +14°C° 0 mm 4 mps 756 mmHg 50%
    16:00 +14°C° 0 mm 3 mps 756 mmHg 54%
    17:00 +13°C° 0 mm 3 mps 757 mmHg 61%
    18:00 +12°C° 0 mm 3 mps 757 mmHg 68%
    19:00 +11°C° 0 mm 3 mps 757 mmHg 76%
    20:00 +11°C° 0 mm 3 mps 757 mmHg 79%
    21:00 +10°C° 0 mm 3 mps 757 mmHg 83%
    22:00 +10°C° 0 mm 3 mps 757 mmHg 86%
    23:00 +10°C° 0 mm 3 mps 757 mmHg 86%

    27 September, Thursday

    Time Temperature Precipitation Wind Pressure Humidity
    00:00 +10°C° 0 mm 3 mps 756 mmHg 87%
    01:00 +10°C° 0 mm 3 mps 756 mmHg 87%
    02:00 +10°C° 0 mm 3 mps 756 mmHg 84%
    03:00 +10°C° 0 mm 4 mps 756 mmHg 82%
    04:00 +10°C° 0 mm 4 mps 755 mmHg 79%
    05:00 +9°C° 0 mm 5 mps 755 mmHg 78%
    06:00 +10°C° 0 mm 5 mps 755 mmHg 77%
    07:00 +10°C° 0 mm 5 mps 754 mmHg 75%
    08:00 +11°C° 0 mm 6 mps 754 mmHg 70%
    09:00 +11°C° 0 mm 6 mps 754 mmHg 65%
    10:00 +13°C° 0 mm 6 mps 753 mmHg 60%
    11:00 +14°C° 0 mm 7 mps 753 mmHg 56%
    12:00 +16°C° 0 mm 7 mps 752 mmHg 51%
    13:00 +17°C° 0 mm 7 mps 752 mmHg 46%
    14:00 +17°C° 0 mm 7 mps 751 mmHg 47%
    15:00 +17°C° 0 mm 6 mps 750 mmHg 49%
    16:00 +16°C° 0 mm 5 mps 750 mmHg 50%
    17:00 +15°C° 0 mm 5 mps 749 mmHg 52%
    18:00 +14°C° 0 mm 5 mps 749 mmHg 55%
    19:00 +13°C° 0 mm 5 mps 749 mmHg 57%
    20:00 +13°C° 0 mm 5 mps 749 mmHg 57%
    21:00 +13°C° 0 mm 5 mps 748 mmHg 57%
    22:00 +11°C° 0 mm 6 mps 748 mmHg 57%
    23:00 +11°C° 0.1 mm 6 mps 748 mmHg 60%
    Show more